User: anonymous   Login
Location: eljas
(40.1958°N, 6.8661°W)
Time: 00:14:38
(UTC+02:00)
Language:

Okean O Rocket - Orbit

View from above orbital plane
View from above orbital plane
View from above satellite
View from above satellite

Ground track
Ground track

The orbit data is extracted from the following two-line orbital elements,

1 25861U 99039B   16179.91924745 +.00000060 +00000-0 +15562-4 0  9996
2 25861 098.0542 143.9802 0016596 139.0268 283.0708 14.78327568913322
Epoch (UTC): 27 June 2016 22:03:42
Eccentricity: 0.0016596
inclination: 98.0542°
perigee height: 623 km
apogee height: 646 km
right ascension of ascending node: 143.9802°
argument of perigee: 139.0268°
revolutions per day: 14.78327568
mean anomaly at epoch: 283.0708°
orbit number at epoch: 91332

The dashed part of the orbit path shows where the satellite is in the earth's shadow,  

DLR